Regional Weather Roundup
Issued by NWS Glasgow, MT

Home | Current Version | Previous Version | Text Only | Print | Product List | Glossary On
Versions: 1 2 3 4 5 6 7 8 9 10 11 12 13 14 15 16 17 18 19 20 21 22 23 24 25 26 27 28 29
000
ASUS45 KGGW 220515
RWRGGW
HOURLY REGIONAL WEATHER ROUNDUP FOR NORTHEAST MONTANA
NATIONAL WEATHER SERVICE GLASGOW MONTANA
1000 PM MST TUE FEB 21 2017

NOTE: "FAIR" INDICATES FEW OR NO CLOUDS BELOW 12,000 FEET WITH NO
SIGNIFICANT WEATHER AND/OR OBSTRUCTIONS TO VISISBILITY.

NORTHEAST MONTANA


CITY           SKY/WX    TMP DP  RH WIND       PRES   REMARKS
GLASGOW        CLOUDY    33  31  92 NE6       29.71S FOG
PLENTYWOOD       N/A     32  32 100 NE12G20     N/A
WOLF POINT     LGT RAIN  35  33  92 N5        29.72F FOG
JORDAN           N/A     35  33  92 CALM      29.69R
WINNETT          N/A     34  33  96 NE7         N/A
SIDNEY         MOCLDY    36  34  92 N12       29.68F
GLENDIVE       CLOUDY    34  32  92 N5        29.68R
MALTA            N/A     33  33 100 NE3G12      N/A

FORT PECK REPORTS


CITY           SKY/WX    TMP DP  RH WIND       PRES   REMARKS
FORT PECK        N/A     33  33 100 N7          N/A
THE PINES        N/A     37  35  92 CALM        N/A

SOUTHEAST MONTANA


CITY           SKY/WX    TMP DP  RH WIND       PRES   REMARKS
BILLINGS       MOCLDY    46  26  45 SW14      29.69S
MILES CITY     CLOUDY    40  36  86 N10       29.65S
BAKER          CLOUDY    36  33  89 N6        29.65F
LIVINGSTON     CLEAR     38  17  42 SW21      29.70F

CENTRAL MONTANA


CITY           SKY/WX    TMP DP  RH WIND       PRES   REMARKS
HAVRE          CLOUDY    35  34  96 N5        29.72R
LEWISTOWN      CLOUDY    36  33  89 S14       29.66F
GREAT FALLS    FOG       34  33  96 N9        29.69R VSB 1/4
CUT BANK       LGT SNOW  30  30 100 N3        29.73R FOG
HELENA         CLOUDY    41  28  60 SW10      29.75R
BUTTE          CLOUDY    33  24  69 W5        29.78R
BOZEMAN        CLOUDY    40  19  43 SW14      29.76S

WESTERN MONTANA


CITY           SKY/WX    TMP DP  RH WIND       PRES   REMARKS
MISSOULA       CLOUDY    36  33  89 N8        29.85R
KALISPELL      NOT AVBL

NORTH DAKOTA


CITY           SKY/WX    TMP DP  RH WIND       PRES   REMARKS
WILLISTON      CLOUDY    34  32  92 N13       29.67F
DICKINSON      CLOUDY    33  32  96 S3        29.65R
MINOT          CLOUDY    34  32  92 W5        29.67F
BISMARCK       PTCLDY    35  34  96 CALM      29.67F

SOUTHERN SASKATCHEWAN


CITY           SKY/WX    TMP DP  RH WIND       PRES   REMARKS
REGINA         CLOUDY    32  25  74 N12       29.75S
ESTEVAN        FOG       32  32 100 CALM      29.71R VSB 1/8
SWIFT CURRENT  CLOUDY    30  27  86 NE6       29.75R





USA.gov is the U.S. government's official web portal to all federal, state and local government web resources and services.